Wind_Speed
16 18 18 19 20 20 19 19 18 17 16 15 14 14 14 14 14 14 15 15 15 16 17 17 18 19 19 18 18 19 19 19 19 20 21 22 22 22 22 22 23 23 22
18 18 17 17 17 17 17 16 16 15 15 16 15 15 15 15 15 15 15 16 17 17 18 19 19 20 21 21 22 22 22 23 23 23 24 24 25 26 26 26 26 26 26
17 16 15 15 14 14 13 12 12 12 13 13 14 14 14 15 16 16 17 17 18 19 19 20 20 21 22 23 23 24 25 25 26 27 27 28 29 29 30 30 30 30 29
13 13 12 11 10 9 9 9 8 9 10 11 12 12 13 14 15 16 17 18 20 21 21 22 22 23 24 24 25 26 27 29 30 30 31 32 32 33 33 33 33 33 33
10 10 9 9 8 7 7 7 7 7 7 8 9 11 12 13 14 16 17 19 20 22 23 24 24 25 26 27 28 29 31 32 33 34 35 36 37 36 36 36 37 37 36
8 8 9 9 9 8 7 6 6 5 5 6 7 8 9 11 12 14 16 18 20 21 23 25 26 26 27 28 29 30 32 33 35 36 38 39 39 39 39 39 39 38 38
9 10 10 10 9 8 7 6 5 5 4 4 5 6 7 9 10 12 14 16 17 19 21 22 23 25 26 27 28 29 30 32 33 34 35 36 37 37 37 37 38 38 38
11 11 11 10 9 8 7 7 6 6 5 5 5 6 7 8 9 11 12 13 15 16 18 19 21 23 24 25 26 27 27 29 30 31 32 32 33 34 34 33 34 34 34
14 12 12 11 9 9 8 8 8 8 8 9 9 9 10 10 11 12 13 13 14 15 17 18 20 22 23 25 26 27 28 29 30 30 31 31 32 32 33 33 34 34 33
14 12 12 10 10 10 10 10 10 10 11 12 12 13 13 13 14 14 15 15 16 17 18 19 21 22 24 25 27 28 29 30 31 32 33 33 33 33 33 34 34 34 34
15 13 11 11 10 10 10 10 11 11 12 14 14 14 15 15 16 16 17 18 19 19 20 21 22 23 25 26 28 30 31 32 33 34 35 35 35 35 35 35 35 35 35
17 15 12 11 10 10 10 11 11 12 13 14 15 16 17 18 19 19 20 21 21 22 22 23 24 25 26 27 28 30 32 33 35 36 37 37 37 37 37 37 37 38 38
18 18 16 13 13 11 11 11 12 13 15 16 17 18 19 20 21 22 22 23 24 25 25 26 27 28 29 30 31 32 33 35 37 38 39 40 40 40 40 40 40 41 41
19 18 17 15 15 14 12 11 12 14 16 19 20 21 22 23 23 24 25 26 27 28 29 30 31 32 33 34 35 36 37 38 39 40 42 43 44 44 45 45 44 44 44
19 19 17 15 15 15 13 12 13 16 18 20 22 24 24 25 25 26 27 28 29 30 31 32 33 35 36 38 38 39 40 41 42 44 46 47 48 48 49 49 49 48 48
20 20 19 18 18 16 15 14 15 18 20 22 23 24 24 25 25 26 27 28 29 30 32 33 35 37 38 39 40 41 42 43 44 46 48 49 50 51 51 52 52 52 52
23 21 20 20 19 19 18 18 19 19 21 22 22 22 23 23 24 26 28 30 31 33 35 36 38 39 41 42 43 43 45 46 48 49 51 52 52 53 55 55 56 56 57
24 22 22 21 21 22 21 20 19 19 20 21 21 22 23 24 26 28 30 32 34 36 38 40 41 43 44 46 47 48 49 51 52 53 55 56 57 58 58 59 60 61 62
26 24 23 23 23 23 22 21 21 21 22 23 24 25 26 28 30 32 34 36 38 40 42 44 45 47 48 49 51 52 54 56 57 58 59 60 62 63 64 65 66 66 67
26 25 25 25 25 25 24 24 24 25 26 28 29 30 31 33 34 36 38 41 43 45 47 48 50 51 52 53 54 55 57 58 60 61 62 62 63 65 66 67 69 70 70
26 26 27 27 28 29 28 28 28 30 31 33 34 35 36 38 39 41 43 46 48 49 51 52 53 54 55 56 57 57 57 59 60 61 60 59 60 61 63 64 65 66 67
27 28 30 31 32 33 33 33 34 35 36 37 38 39 40 42 44 46 48 50 52 53 54 55 56 57 57 58 58 57 55 55 55 54 54 55 55 56 58 59 60 61 61
29 31 33 35 36 38 39 39 40 40 40 40 41 43 44 45 48 50 52 54 55 56 56 56 57 57 57 56 55 53 51 49 47 47 48 50 52 54 56 57 58 59 59
32 34 36 39 41 42 43 43 44 43 42 42 44 45 46 48 51 54 57 59 59 58 58 57 57 56 55 53 51 48 47 46 45 44 44 47 49 52 54 55 57 57 57
35 37 39 42 43 44 45 46 46 45 44 45 46 47 49 52 55 59 61 62 61 60 59 58 56 54 51 48 45 44 43 44 46 48 48 49 50 53 54 55 55 56 56
37 39 40 43 44 45 46 46 45 46 46 47 48 50 53 56 59 63 64 63 62 60 58 56 53 49 45 43 42 43 44 46 48 51 52 53 54 55 56 57 56 54 53
Wind_Direction
306 301 296 294 292 291 289 288 286 284 286 289 291 295 294 292 289 284 281 278 277 276 276 275 274 271 268 266 265 266 267 268 269 270 270 271 272 271 269 267 265 265 266
308 304 300 297 294 292 289 286 283 280 279 282 284 288 290 289 288 285 282 280 280 279 279 278 278 276 273 272 271 272 272 272 272 271 271 271 271 271 271 270 268 268 268
309 305 301 299 297 295 292 290 286 280 279 278 279 283 285 286 286 285 284 284 283 283 283 283 282 280 279 277 276 276 277 277 277 276 275 273 270 270 270 269 269 268 268
311 307 304 302 302 303 303 301 297 292 287 283 282 283 285 285 285 284 285 285 285 285 285 285 285 284 283 282 281 280 280 280 280 279 278 275 272 271 270 269 268 267 266
318 311 311 314 315 321 324 321 317 312 305 298 294 292 288 286 285 283 283 283 284 285 285 285 285 285 284 283 282 281 280 280 280 280 280 278 276 274 273 271 269 266 265
330 325 323 321 325 335 342 344 339 331 327 316 303 299 294 289 288 286 284 283 284 284 286 285 285 284 284 284 283 282 281 280 280 280 280 279 278 277 275 273 272 270 268
341 338 331 328 327 335 343 349 348 346 339 329 313 300 296 292 291 289 288 287 286 286 287 287 286 286 285 284 284 283 283 281 281 281 280 279 278 277 276 275 272 273 270
340 337 333 333 333 337 340 341 339 338 334 324 314 305 297 293 290 289 288 287 287 289 290 290 289 288 287 286 285 284 284 283 282 282 282 281 280 278 276 274 273 272 272
340 337 337 335 341 339 334 329 327 324 321 318 314 307 302 298 294 289 286 284 284 284 285 286 286 286 286 286 286 285 284 283 282 281 281 281 280 279 278 277 277 275 275
347 343 342 340 337 335 327 320 318 316 315 314 312 308 303 299 295 291 288 284 282 280 279 278 278 279 280 281 283 283 283 282 281 280 279 279 279 278 278 277 277 277 276
359 352 346 339 335 335 328 319 313 312 312 313 313 310 306 303 299 296 292 290 287 285 283 281 279 279 279 279 279 279 280 280 281 280 280 279 278 277 276 275 275 275 274
1 357 349 352 350 338 331 327 321 317 313 313 312 310 308 305 301 299 296 294 293 291 290 288 287 285 284 283 282 281 279 279 279 279 278 277 277 276 275 274 274 274 273
6 4 5 1 356 347 337 331 326 320 314 310 307 305 304 302 300 299 297 296 295 295 295 295 294 293 291 291 289 287 283 281 279 279 278 277 276 275 274 274 273 273 273
6 3 4 6 3 354 341 332 325 317 311 306 302 300 300 300 299 299 299 300 300 301 302 302 302 300 298 296 293 290 287 284 282 280 279 278 277 276 276 275 275 274 273
354 353 353 356 352 350 338 322 315 310 306 305 303 301 302 301 303 303 304 305 306 305 306 305 304 303 300 298 294 292 290 287 284 281 280 279 277 277 276 275 275 275 273
345 347 347 346 345 345 337 323 312 306 303 304 304 304 304 304 305 307 308 308 307 306 305 304 302 300 298 296 293 291 289 288 285 283 281 279 278 277 276 275 274 273 272
336 336 337 339 340 338 335 327 318 310 306 306 306 308 309 310 311 312 312 310 308 306 304 302 301 298 296 294 292 289 287 286 285 284 282 280 278 277 276 275 273 273 272
328 328 329 331 332 332 333 329 323 319 317 316 315 316 316 316 314 313 312 311 309 307 304 302 300 297 295 293 291 289 288 286 284 283 282 280 279 278 277 275 274 274 273
321 321 323 326 327 328 330 329 327 327 327 325 324 323 322 320 318 316 314 312 310 307 305 302 300 297 295 293 291 289 288 287 285 283 281 280 278 277 276 275 274 274 274
315 316 319 320 322 324 325 325 326 328 329 329 328 327 326 324 322 320 318 315 313 310 306 304 301 299 297 294 292 290 289 287 286 284 283 281 279 278 276 275 274 274 274
310 312 314 315 316 318 320 321 323 325 326 327 328 327 326 325 323 322 319 317 314 311 308 305 302 300 298 296 293 291 289 288 286 285 284 283 281 279 278 277 276 275 274
306 309 310 311 312 313 315 316 318 319 321 323 324 324 324 323 323 321 319 317 314 311 307 305 302 300 298 296 294 292 291 288 287 286 285 284 283 282 281 280 279 278 277
304 306 307 307 309 310 311 312 313 314 315 318 320 321 321 321 321 320 318 316 313 310 307 304 302 300 299 297 295 294 292 291 289 287 287 287 286 285 284 283 281 280 278
299 301 303 304 305 306 308 308 308 310 311 313 315 317 317 318 318 318 317 315 312 310 307 305 303 301 299 297 295 294 294 293 292 291 290 290 289 288 286 285 283 280 278
295 297 299 300 301 302 304 305 306 307 308 310 312 313 315 316 316 316 315 314 311 309 307 305 303 302 299 297 296 295 295 295 295 294 294 293 292 292 290 288 284 280 277
290 293 294 296 297 299 301 303 304 306 306 308 309 311 313 314 315 315 314 312 311 309 307 306 303 301 299 297 297 296 295 295 295 295 296 296 294 294 293 291 287 282 278
Height
5890 5888 5887 5886 5885 5885 5884 5884 5884 5884 5884 5885 5886 5887 5887 5887 5887 5888 5888 5888 5889 5889 5889 5890 5890 5890 5891 5891 5891 5891 5892 5892 5893 5893 5893 5893 5893 5894 5894 5894 5894 5894 5894
5887 5886 5885 5883 5882 5882 5881 5881 5881 5881 5881 5882 5883 5884 5884 5884 5885 5885 5885 5886 5886 5886 5886 5887 5887 5887 5888 5888 5888 5889 5889 5889 5890 5890 5890 5889 5889 5889 5889 5889 5890 5890 5890
5884 5883 5882 5881 5880 5879 5878 5878 5877 5878 5878 5879 5880 5880 5881 5882 5882 5882 5883 5883 5883 5883 5883 5884 5884 5884 5885 5885 5885 5885 5885 5886 5886 5886 5885 5885 5885 5884 5884 5884 5884 5885 5885
5881 5880 5880 5879 5877 5876 5876 5875 5875 5876 5876 5877 5877 5878 5878 5879 5879 5880 5880 5880 5880 5880 5880 5880 5880 5880 5881 5881 5881 5881 5881 5881 5881 5881 5880 5880 5879 5878 5878 5878 5878 5878 5879
5879 5878 5878 5877 5876 5875 5874 5874 5874 5874 5874 5875 5875 5876 5876 5876 5876 5877 5877 5877 5877 5877 5877 5876 5876 5876 5876 5876 5877 5877 5876 5876 5875 5874 5874 5873 5873 5872 5872 5871 5871 5871 5871
5878 5877 5876 5875 5874 5873 5873 5872 5872 5872 5873 5873 5873 5873 5873 5873 5873 5873 5873 5873 5873 5873 5872 5872 5872 5872 5872 5872 5871 5871 5871 5870 5869 5868 5867 5866 5865 5865 5865 5864 5864 5864 5864
5878 5876 5875 5874 5872 5872 5871 5871 5871 5871 5871 5871 5871 5871 5871 5871 5871 5870 5870 5870 5869 5869 5868 5868 5867 5867 5866 5866 5866 5866 5865 5864 5863 5862 5860 5859 5858 5858 5857 5857 5857 5857 5857
5876 5875 5873 5872 5871 5870 5870 5870 5870 5869 5869 5869 5869 5869 5868 5868 5868 5867 5867 5866 5866 5865 5864 5863 5863 5862 5861 5861 5861 5861 5860 5859 5857 5856 5855 5854 5852 5851 5850 5850 5849 5850 5849
5874 5873 5872 5870 5869 5869 5869 5868 5868 5868 5868 5868 5867 5867 5866 5866 5865 5864 5864 5863 5862 5862 5861 5860 5859 5858 5857 5856 5856 5855 5855 5853 5852 5851 5850 5848 5847 5846 5845 5844 5844 5843 5843
5872 5871 5870 5868 5868 5867 5867 5867 5867 5867 5866 5866 5865 5864 5863 5862 5862 5861 5860 5859 5858 5857 5856 5855 5854 5853 5852 5851 5850 5850 5849 5848 5846 5845 5844 5842 5841 5840 5839 5838 5837 5837 5837
5870 5869 5867 5867 5866 5865 5865 5865 5865 5864 5864 5863 5862 5861 5860 5859 5858 5857 5856 5855 5853 5852 5851 5850 5849 5847 5846 5845 5844 5843 5842 5841 5840 5838 5837 5836 5834 5833 5832 5831 5831 5830 5830
5869 5867 5866 5865 5864 5864 5863 5863 5862 5862 5861 5860 5859 5857 5856 5855 5854 5853 5851 5850 5849 5847 5846 5845 5843 5842 5840 5839 5838 5836 5835 5833 5832 5831 5829 5828 5826 5825 5824 5823 5823 5822 5822
5868 5866 5865 5864 5863 5862 5861 5860 5860 5859 5858 5857 5855 5854 5853 5851 5850 5848 5847 5845 5844 5842 5840 5839 5837 5835 5834 5832 5830 5829 5827 5825 5824 5822 5821 5819 5818 5816 5815 5815 5814 5814 5813
5868 5866 5864 5862 5861 5861 5859 5858 5857 5856 5855 5853 5852 5850 5848 5847 5845 5844 5842 5840 5838 5836 5834 5832 5830 5828 5826 5824 5822 5820 5818 5817 5815 5813 5811 5810 5808 5807 5806 5805 5805 5804 5804
5867 5865 5863 5861 5860 5859 5858 5856 5855 5853 5851 5849 5847 5845 5844 5842 5840 5838 5836 5834 5832 5830 5828 5825 5823 5821 5818 5816 5813 5811 5809 5807 5805 5803 5801 5799 5797 5796 5795 5794 5794 5794 5793
5864 5863 5861 5859 5858 5856 5855 5853 5851 5849 5847 5845 5843 5841 5839 5837 5835 5833 5831 5829 5826 5824 5822 5819 5817 5814 5811 5808 5805 5802 5799 5796 5794 5791 5789 5787 5785 5784 5783 5782 5781 5781 5781
5861 5860 5858 5856 5855 5854 5852 5850 5848 5846 5844 5842 5839 5837 5835 5832 5830 5828 5826 5823 5821 5818 5816 5813 5810 5807 5803 5800 5796 5793 5789 5786 5782 5779 5777 5774 5772 5771 5769 5768 5768 5767 5767
5858 5856 5854 5853 5851 5850 5848 5846 5844 5842 5840 5838 5835 5833 5830 5828 5825 5823 5820 5817 5814 5811 5808 5805 5801 5798 5794 5790 5786 5782 5778 5774 5770 5767 5764 5761 5758 5756 5754 5753 5752 5751 5751
5853 5852 5850 5848 5847 5845 5844 5842 5840 5838 5836 5833 5830 5828 5825 5822 5819 5816 5813 5810 5806 5803 5799 5795 5791 5786 5782 5778 5774 5769 5765 5760 5756 5752 5749 5745 5742 5740 5738 5736 5734 5733 5733
5848 5847 5845 5844 5842 5841 5839 5837 5835 5833 5830 5827 5824 5821 5817 5814 5811 5807 5803 5800 5795 5791 5786 5781 5777 5772 5767 5763 5759 5754 5750 5744 5740 5736 5732 5728 5725 5722 5720 5718 5716 5715 5714
5843 5841 5839 5838 5837 5835 5833 5831 5828 5825 5822 5819 5816 5812 5809 5805 5801 5797 5792 5788 5783 5778 5773 5767 5762 5757 5752 5747 5743 5739 5734 5728 5723 5719 5715 5711 5708 5704 5701 5699 5697 5695 5694
5837 5835 5833 5832 5830 5828 5825 5823 5820 5817 5814 5811 5807 5804 5800 5795 5791 5786 5781 5776 5771 5765 5759 5754 5748 5742 5737 5731 5726 5722 5718 5715 5708 5703 5699 5695 5691 5688 5685 5681 5679 5677 5675
5831 5829 5827 5825 5822 5820 5817 5814 5812 5809 5805 5802 5798 5794 5790 5785 5781 5775 5770 5764 5758 5752 5745 5739 5733 5727 5721 5716 5710 5705 5701 5697 5694 5692 5687 5682 5676 5672 5668 5665 5662 5659 5657
5825 5823 5820 5818 5815 5812 5809 5806 5803 5800 5797 5793 5790 5786 5781 5776 5770 5764 5758 5751 5744 5737 5731 5724 5718 5712 5706 5700 5695 5690 5686 5682 5678 5677 5675 5669 5663 5658 5653 5649 5645 5642 5639
5818 5816 5814 5811 5807 5804 5801 5798 5795 5792 5788 5785 5781 5776 5771 5765 5759 5752 5745 5737 5730 5722 5715 5709 5702 5696 5691 5686 5681 5677 5673 5669 5664 5661 5659 5656 5650 5642 5637 5632 5629 5625 5623
5811 5809 5806 5803 5800 5797 5794 5790 5787 5783 5780 5776 5771 5766 5760 5753 5746 5739 5731 5723 5715 5707 5700 5694 5687 5682 5677 5672 5669 5665 5661 5657 5652 5647 5643 5639 5635 5628 5621 5615 5611 5608 5606